Location: Noral
(54.6536°N, 112.3633°W)
Time: 11:18:37
(UTC+00:00)

N. Korean satellite - Visible Passes

Search period start: 05 December 2021 00:00
Search period end: 15 December 2021 00:00
Orbit: 446 x 495 km, 97.3° (Epoch: 05 December)

Date Brightness Start Highest point End Pass type
(mag) Time Alt. Az. Time Alt. Az. Time Alt. Az.
05 Dec 9.7 00:54:31 10° SW 00:56:47 16° W 00:59:04 10° NW visible
05 Dec 8.8 12:11:18 10° NE 12:14:08 24° E 12:16:56 10° SSE visible
05 Dec 7.1 13:44:19 10° N 13:47:23 32° WNW 13:50:26 10° SW visible
06 Dec 8.7 00:24:55 10° SSW 00:28:03 30° W 00:31:10 10° NNW visible
06 Dec 9.7 11:43:43 10° ENE 11:45:20 13° E 11:46:57 10° ESE visible
06 Dec 6.3 13:15:34 10° N 13:18:57 65° WNW 13:22:18 10° SSW visible
06 Dec 7.1 23:55:57 10° S 23:59:24 61° WSW 00:02:52 10° NNW visible
07 Dec 6.9 12:47:02 10° NNE 12:50:24 59° ESE 12:53:44 10° S visible
07 Dec 8.0 14:21:08 10° NNW 14:23:14 16° WNW 14:25:19 10° W visible
08 Dec 9.8 01:02:38 10° WSW 01:04:27 14° W 01:06:16 10° WNW visible
08 Dec 8.4 12:18:44 10° NNE 12:21:45 28° E 12:24:43 10° SSE visible
08 Dec 7.3 13:51:59 10° N 13:54:54 27° WNW 13:57:49 10° SW visible
09 Dec 9.0 00:32:44 10° SSW 00:35:40 25° W 00:38:36 10° NW visible
09 Dec 9.5 11:50:53 10° NE 11:52:58 15° E 11:55:02 10° SE visible
09 Dec 6.4 13:23:09 10° N 13:26:29 53° WNW 13:29:47 10° SSW visible
10 Dec 7.5 00:03:35 10° S 00:06:59 49° W 00:10:21 10° NNW visible
10 Dec 6.8 12:54:32 10° NNE 13:00:22 18° S 13:01:19 10° S visible
10 Dec 8.2 14:28:56 10° NNW 14:30:41 14° WNW 14:31:27 13° WNW visible
11 Dec 10.0 01:10:55 10° WSW 01:12:03 11° W 01:13:12 10° WNW visible
11 Dec 8.5 12:26:09 10° NNE 12:32:11 11° SSE 12:32:25 10° SSE visible
11 Dec 7.6 13:59:36 10° N 14:06:18 - SW 14:01:57 23° NW visible
12 Dec 9.3 00:40:31 10° SW 00:43:13 21° W 00:45:55 10° NW visible
12 Dec 9.6 11:58:05 10° NE 12:03:49 - SE 11:58:35 12° NE visible
12 Dec 7.5 13:30:40 10° N 13:37:56 - SW 13:32:39 29° NNW visible
13 Dec 8.0 00:11:12 10° S 00:14:29 40° W 00:17:45 10° NNW visible
13 Dec 8.1 13:01:59 10° NNE 13:09:27 - SSW 13:03:25 24° NNE visible
13 Dec 8.4 14:36:47 10° NW 14:37:28 11° NW 14:37:28 11° NW visible
13 Dec 6.5 23:42:23 10° SSE 23:45:50 86° WSW 23:49:16 10° NNW visible
14 Dec 9.0 12:33:29 10° NNE 12:40:55 - S 12:34:15 15° NNE visible
14 Dec 8.2 14:07:10 10° NNW 14:08:19 16° NNW 14:08:19 16° NNW visible
